Погода в Балахте

Россия / Красноярский край     55°23′10″N   91°37′37″E
темп.,
°C
ветер,
м/с
пор.,
м/с
влажн.,
%
обл.,
%
осадки,
мм/ч
давл.,
гПа
погр.,
м
17 сентября, пт
пт1701:00+10в2294100 2.2 101142
04:00+10в2293100 0.8 101050
07:00+9юв119481 1.3 101116
10:00+13ю23808 0.0 1010343
13:00+18ююз23575 0.0 1009744
16:00+19ююз234317 0.0 10081282
19:00+14вюв2266100 0.0 100718
22:00+11в2275100 0.0 100724
18 сентября, сб
сб1801:00+10в228458 0.0 100527
04:00+9вюв338355 0.0 100349
07:00+9в237886 0.0 100250
10:00+14юз41262100 0.0 1004508
13:00+15з81168100 0.1 10061362
16:00+13з586085 0.0 1010942
19:00+9зсз35726 0.0 101283
22:00+9в117056 0.0 101220
19 сентября, вс
вс1901:00+7в11798 0.0 101225
04:00+6в228793 0.0 101215
07:00+6вюв1186100 0.0 101111
10:00+12ююв2366100 0.0 1010376
13:00+15зюз374577 0.0 10081407
16:00+16зюз364489 0.0 10071743
19:00+12ююв2265100 0.0 100610
22:00+10зсз2272100 0.0 100615
20 сентября, пн
пн2001:00+10св2270100 0.1 100324
04:00+8зюз1188100 0.6 100221
07:00+8юз51293100 3.0 1004783
10:00+6з7128474 0.9 10081284
13:00+7зюз81266100 1.4 10101764
16:00+7з7106383 0.5 10111508
19:00+4зюз51173100 0.8 1012813
22:00+3з498575 0.0 1014547
21 сентября, вт
вт2101:00+2зюз388866 0.0 1015447
04:00+1зюз3797100 0.1 1015392
07:00+1зюз3798100 0.6 1016338
10:00+2зюз4688100 0.2 1017673
13:00+4з467098 0.7 10171214
16:00+5з356498 0.4 10171165
19:00+2зюз227994 0.6 101818
22:000зюз2487100 0.0 101986